Regional Weather Roundup
Issued by NWS

Home | Current Version | Previous Version | Text Only | Print | Product List | Glossary Off
Versions: 1 2 3 4 5 6 7 8 9 10 11 12 13 14 15 16 17 18 19 20 21 22 23 24 25 26 27 28 29 30 31 32 33 34 35 36 37 38 39 40 41 42 43 44 45 46 47 48 49 50

000
ASUS43 KOAX 270002
RWRNE

WEATHER ROUNDUP FOR NEBRASKA
NATIONAL WEATHER SERVICE OMAHA NE
600 PM CST MON JAN 26 2015

NOTES: SATELLITE DATA IS BEING USED TO AUGMENT CLOUD COVER ABOVE
       12000 FEET.
       "FAIR" INDICATES FEW OR NO CLOUDS BELOW 12,000 FEET WITH NO
       SIGNIFICANT WEATHER AND/OR OBSTRUCTIONS TO VISIBILITY.

  * THESE STATIONS DO NOT REPORT WEATHER SUCH AS RAIN...SNOW OR FOG.

NEZ001>004-019>022-054>056-270100-
NEBRASKA PANHANDLE

CITY           SKY/WX    TMP DP  RH WIND       PRES   REMARKS
SCOTTSBLUFF    CLEAR     52  34  50 W7        30.11R
6HR MIN TEMP:  52; 6HR MAX TEMP:  65;

ALLIANCE       CLEAR     48  35  60 W10       30.08S
6HR MIN TEMP:  48; 6HR MAX TEMP:  64;

CHADRON        CLEAR     54  34  46 CALM      30.05S
6HR MIN TEMP:  54; 6HR MAX TEMP:  65;

SIDNEY         CLEAR     50  30  46 W5        30.13F
6HR MIN TEMP:  50; 6HR MAX TEMP:  67;

$$

NEZ057>060-069>072-079>082-270100-
SOUTHWEST NEBRASKA

CITY           SKY/WX    TMP DP  RH WIND       PRES   REMARKS
NORTH PLATTE   CLEAR     52  30  43 N5        30.06R
6HR MIN TEMP:  52; 6HR MAX TEMP:  68;

IMPERIAL       CLEAR     60  29  30 NW5       30.10S
6HR MIN TEMP:  60; 6HR MAX TEMP:  68;

MCCOOK         CLEAR     62  29  28 W7        30.07R
6HR MIN TEMP:  60; 6HR MAX TEMP:  73;

$$

NEZ005>010-023>029-035>040-094-270100-
NORTH CENTRAL NEBRASKA

CITY           SKY/WX    TMP DP  RH WIND       PRES   REMARKS
VALENTINE      CLEAR     51  31  46 W8        30.02S
6HR MIN TEMP:  51; 6HR MAX TEMP:  62;

BROKEN BOW     CLEAR     52  31  44 NW9       30.03R
6HR MIN TEMP:  52; 6HR MAX TEMP:  66;

ORD            CLEAR     46  32  58 NW3       30.01R
6HR MIN TEMP:  46; 6HR MAX TEMP:  63;

$$

NEZ041-046>049-061>064-073>077-083>087-270100-
SOUTH CENTRAL NEBRASKA

CITY           SKY/WX    TMP DP  RH WIND       PRES   REMARKS
GRAND ISLAND   CLEAR     47  33  58 N6        30.03R
6HR MIN TEMP:  47; 6HR MAX TEMP:  63;

HASTINGS       CLEAR     51  30  44 N7        30.02R
6HR MIN TEMP:  51; 6HR MAX TEMP:  65;

KEARNEY *      CLEAR     54  30  40 N6        30.04R
$$

NEZ011>018-030>034-042>045-270100-
NORTHEAST NEBRASKA

CITY           SKY/WX    TMP DP  RH WIND       PRES   REMARKS
NORFOLK        CLEAR     49  33  54 NW7       30.00R
6HR MIN TEMP:  49; 6HR MAX TEMP:  58;

COLUMBUS *     CLEAR     45  28  53 NW8       30.02R
TEKAMAH        CLEAR     45  34  65 W9        29.98R
6HR MIN TEMP:  45; 6HR MAX TEMP:  57;

$$

NEZ050>053-065>068-078-088>093-270100-
SOUTHEAST NEBRASKA

CITY           SKY/WX    TMP DP  RH WIND       PRES   REMARKS
LINCOLN        CLEAR     54  31  41 NW7       30.01R
6HR MIN TEMP:  54; 6HR MAX TEMP:  62;

OMAHA EPPLEY   PTCLDY    47  33  58 NW8       29.97R
6HR MIN TEMP:  47; 6HR MAX TEMP:  58;

FALLS CITY     CLEAR     48  31  51 NW6       29.97R
6HR MIN TEMP:  48; 6HR MAX TEMP:  62;

$$

NEZ044-045-051>053-067-270100-
OMAHA AREA

CITY           SKY/WX    TMP DP  RH WIND       PRES   REMARKS
OMAHA EPPLEY   PTCLDY    47  33  58 NW8       29.97R
6HR MIN TEMP:  47; 6HR MAX TEMP:  58;

$$



USA.gov is the U.S. government's official web portal to all federal, state and local government web resources and services.